CW4047 Weather Reports


time (UTC)temp
F
wind
direction
speed
knots
gust
knots
rain 1hr
in
rain 24hr
in
rain mn
in
humidity
%
barometer
mb
20260504110331 42 258 0.0 0.0 0.00 0.00 0.00 85 1014.7
20260504100331 43 258 0.0 0.0 0.00 0.00 0.00 83 1014.6
20260504081829 42 258 0.0 0.0 0.00 0.00 0.00 82 1015.0
20260504081329 42 258 0.0 0.0 0.00 0.00 0.00 82 1015.0
20260504080828 42 258 0.0 0.0 0.00 0.00 0.00 83 1015.0
20260504080328 42 258 0.0 0.0 0.00 0.00 0.00 83 1015.0
20260504080110 42 258 0.0 0.0 0.00 0.00 0.00 84 1015.0
20260504060127 39 258 0.0 0.0 0.00 0.00 0.00 83 1015.3
20260504050329 38 258 0.0 0.0 0.00 0.00 0.00 83 1015.7
20260504045829 38 258 0.0 0.0 0.00 0.00 0.00 83 1015.7
20260504045614 38 258 0.0 0.0 0.00 0.00 0.00 83 1015.7
20260504044829 38 258 0.0 0.0 0.00 0.00 0.00 82 1015.7
20260504044329 38 258 0.0 0.0 0.00 0.00 0.00 82 1015.7
20260504043829 38 258 0.0 0.0 0.00 0.00 0.00 82 1015.6
20260504043329 38 258 0.0 0.0 0.00 0.00 0.00 82 1015.6
20260504042829 39 258 0.0 0.0 0.00 0.00 0.00 82 1015.6
20260504042329 39 258 0.0 0.0 0.00 0.00 0.00 82 1015.6
20260504041828 39 258 0.0 0.0 0.00 0.00 0.00 82 1015.6
20260504041329 39 258 0.0 0.0 0.00 0.00 0.00 82 1015.6
20260504040831 39 258 0.0 0.0 0.00 0.00 0.00 82 1015.6
20260504040329 39 258 0.0 0.0 0.00 0.00 0.00 82 1015.6
20260504040115 39 258 0.0 0.0 0.00 0.00 0.00 82 1015.6
20260504035329 40 258 0.0 0.0 0.00 0.00 0.00 82 1015.6
20260504034830 40 258 0.0 0.0 0.00 0.00 0.00 82 1015.6
20260504034329 40 258 0.0 0.0 0.00 0.00 0.00 82 1015.6
20260504033838 40 258 0.0 0.0 0.00 0.00 0.00 81 1015.4
20260504033329 40 258 0.0 0.0 0.00 0.00 0.00 80 1015.6
20260504032829 40 258 0.0 0.0 0.00 0.00 0.00 80 1015.3
20260504032329 40 258 0.0 0.0 0.00 0.00 0.00 80 1015.3
20260504032108 41 258 0.0 0.0 0.00 0.00 0.00 80 1015.2
20260504031328 41 258 0.0 0.0 0.00 0.00 0.00 79 1015.1
20260504031121 41 258 0.0 0.0 0.00 0.00 0.00 78 1015.1
20260504030333 41 258 0.0 0.0 0.00 0.00 0.00 78 1015.0
20260504030115 41 258 0.0 0.0 0.00 0.00 0.00 78 1015.0
20260504025331 42 258 0.0 0.0 0.00 0.00 0.00 77 1015.0
20260504024832 42 258 0.0 0.0 0.00 0.00 0.00 77 1015.0
20260504024332 42 258 0.0 0.0 0.00 0.00 0.00 77 1015.0
20260504023834 42 258 0.0 0.0 0.00 0.00 0.00 77 1015.1
20260504023332 42 258 0.0 0.0 0.00 0.00 0.00 78 1015.1
20260504022829 42 258 0.0 0.0 0.00 0.00 0.00 77 1015.0
20260504022330 43 258 0.0 0.0 0.00 0.00 0.00 76 1015.0
20260504021829 43 258 0.0 0.0 0.00 0.00 0.00 76 1015.0
20260504021329 43 258 0.0 0.0 0.00 0.00 0.00 75 1015.0
20260504020829 44 258 0.0 0.0 0.00 0.00 0.00 75 1014.9
20260504020330 44 258 0.0 0.0 0.00 0.00 0.00 74 1014.9
20260504015830 44 258 0.0 0.0 0.00 0.00 0.00 73 1014.8
20260504015330 44 258 0.0 0.0 0.00 0.00 0.00 72 1014.8
20260504014830 45 258 0.0 0.0 0.00 0.00 0.00 71 1014.7
20260504014329 45 258 0.0 0.0 0.00 0.00 0.00 72 1014.7
20260504013829 45 258 0.0 0.0 0.00 0.00 0.00 71 1014.7
20260504013329 46 258 0.0 0.0 0.00 0.00 0.00 69 1014.8
20260504013117 46 258 0.0 0.0 0.00 0.00 0.00 69 1014.8
20260504012329 46 258 0.0 0.0 0.00 0.00 0.00 68 1014.7
20260504011829 47 258 0.0 0.0 0.00 0.00 0.00 68 1014.6
20260504011329 47 258 0.0 0.0 0.00 0.00 0.00 67 1014.6
20260504010829 48 258 0.0 0.0 0.00 0.00 0.00 66 1014.5
20260504010328 48 258 0.0 0.0 0.00 0.00 0.00 65 1014.5
20260504005829 49 258 0.0 0.0 0.00 0.00 0.00 63 1014.4
20260504005328 49 258 0.0 0.0 0.00 0.00 0.00 62 1014.5
20260504004828 50 258 0.0 0.0 0.00 0.00 0.00 61 1014.5
20260504004332 50 258 0.0 0.0 0.00 0.00 0.00 59 1014.4
20260504003822 51 258 0.0 0.0 0.00 0.00 0.00 57 1014.3
20260504003321 52 258 0.0 0.0 0.00 0.00 0.00 56 1014.2
20260504002820 52 258 0.0 0.0 0.00 0.00 0.00 55 1014.3
20260504002317 53 258 0.0 0.0 0.00 0.00 0.00 53 1014.2
20260504001816 54 258 0.0 0.0 0.00 0.00 0.00 52 1014.2
20260504001316 54 258 0.0 0.0 0.00 0.00 0.00 51 1014.2
20260504000818 55 258 0.0 0.0 0.00 0.00 0.00 49 1014.1
20260504000308 56 258 0.0 0.0 0.00 0.00 0.00 46 1014.1
20260503235803 57 258 0.0 0.0 0.00 0.00 0.00 46 1014.0
20260503235304 57 258 0.0 0.0 0.00 0.00 0.00 42 1013.9
20260503234803 58 258 0.0 0.0 0.00 0.00 0.00 42 1013.9
20260503234302 58 258 0.0 0.0 0.00 0.00 0.00 38 1013.9
20260503233803 58 258 0.0 0.0 0.00 0.00 0.00 38 1013.9
20260503233303 59 258 0.0 1.7 0.00 0.00 0.00 38 1013.9
20260503232802 59 258 0.0 1.7 0.00 0.00 0.00 38 1013.9
20260503232305 59 258 0.9 1.7 0.00 0.00 0.00 36 1013.8
20260503231802 59 258 0.9 1.7 0.00 0.00 0.00 36 1013.8
20260503231305 59 258 0.0 1.7 0.00 0.00 0.00 36 1013.6
20260503231047 60 258 0.0 1.7 0.00 0.00 0.00 36 1013.6
20260503230302 60 258 0.0 1.7 0.00 0.00 0.00 36 1013.6
20260503225802 60 258 0.9 3.5 0.00 0.00 0.00 36 1013.6
20260503225304 60 258 0.0 3.5 0.00 0.00 0.00 36 1013.6
20260503225048 60 221 0.0 2.6 0.00 0.00 0.00 36 1013.6
20260503224303 60 278 0.9 1.7 0.00 0.00 0.00 36 1013.7
20260503223802 60 278 0.9 3.5 0.00 0.00 0.00 36 1013.7
20260503223303 60 277 0.9 3.5 0.00 0.00 0.00 35 1013.7
20260503222802 60 296 0.9 2.6 0.00 0.00 0.00 37 1013.7
20260503222304 60 286 0.9 9.6 0.00 0.00 0.00 37 1013.7
20260503221803 60 286 1.7 9.6 0.00 0.00 0.00 35 1013.7
20260503221303 60 292 0.9 9.6 0.00 0.00 0.00 36 1013.7
20260503220804 60 80 1.7 5.2 0.00 0.00 0.00 34 1013.6
20260503220303 60 195 0.9 3.5 0.00 0.00 0.00 35 1013.7
20260503215803 60 196 1.7 8.7 0.00 0.00 0.00 35 1013.8
20260503215304 61 196 1.7 8.7 0.00 0.00 0.00 34 1013.8
20260503214804 61 187 2.6 6.1 0.00 0.00 0.00 35 1013.8
20260503214302 61 243 1.7 3.5 0.00 0.00 0.00 35 1013.8
20260503214047 61 246 0.9 3.5 0.00 0.00 0.00 35 1013.8
20260503213303 61 221 1.7 5.2 0.00 0.00 0.00 35 1013.9
20260503212802 61 166 3.5 7.0 0.00 0.00 0.00 34 1013.9
20260503212305 62 180 0.9 7.0 0.00 0.00 0.00 33 1013.8
20260503211803 61 281 0.9 3.5 0.00 0.00 0.00 36 1013.7
20260503211302 61 352 0.9 3.5 0.00 0.00 0.00 35 1013.7
20260503210802 61 343 0.0 5.2 0.00 0.00 0.00 33 1013.7
20260503210302 61 236 2.6 5.2 0.00 0.00 0.00 37 1013.8
20260503205802 61 170 0.9 4.3 0.00 0.00 0.00 34 1013.8
20260503205304 61 171 1.7 4.3 0.00 0.00 0.00 35 1013.9
20260503204802 61 293 1.7 7.0 0.00 0.00 0.00 34 1014.0
20260503204302 61 242 1.7 7.0 0.00 0.00 0.00 34 1014.1
20260503203801 61 117 0.9 2.6 0.00 0.00 0.00 35 1013.8
20260503203302 61 63 0.9 5.2 0.00 0.00 0.00 35 1013.9
20260503203044 61 290 2.6 5.2 0.00 0.00 0.00 34 1013.9
20260503202304 60 243 1.7 9.6 0.00 0.00 0.00 36 1014.0
20260503201801 60 190 2.6 9.6 0.00 0.00 0.00 34 1014.0
20260503201301 61 222 3.5 6.1 0.00 0.00 0.00 36 1014.0
20260503200801 61 167 1.7 7.0 0.00 0.00 0.00 35 1014.2
20260503200301 60 277 1.7 7.0 0.00 0.00 0.00 36 1014.4
20260503195800 60 240 1.7 6.1 0.00 0.00 0.00 40 1014.2
20260503195304 60 279 1.7 5.2 0.00 0.00 0.00 36 1014.4
20260503194758 60 317 0.9 8.7 0.00 0.00 0.00 40 1014.5
20260503194255 59 198 2.6 8.7 0.00 0.00 0.00 38 1014.7
20260503193754 60 232 4.3 8.7 0.00 0.00 0.00 36 1014.6
20260503193250 59 71 1.7 6.1 0.00 0.00 0.00 38 1014.8
20260503192750 59 189 1.7 9.6 0.00 0.00 0.00 38 1014.9
20260503192253 59 292 2.6 9.6 0.00 0.00 0.00 37 1015.0
20260503191750 59 257 1.7 6.1 0.00 0.00 0.00 36 1014.9
20260503191539 59 207 2.6 6.1 0.00 0.00 0.00 39 1015.1
20260503190750 59 206 2.6 5.2 0.00 0.00 0.00 40 1015.0
20260503190250 58 229 2.6 7.8 0.00 0.00 0.00 39 1015.1
20260503185751 58 228 2.6 7.8 0.00 0.00 0.00 39 1015.1
20260503185250 58 240 1.7 6.1 0.00 0.00 0.00 40 1015.1
20260503184750 58 209 1.7 7.8 0.00 0.00 0.00 41 1015.2
20260503184251 58 215 2.6 7.8 0.00 0.00 0.00 43 1015.2
20260503183751 58 56 1.7 6.1 0.00 0.00 0.00 40 1015.3
20260503183250 57 232 2.6 6.1 0.00 0.00 0.00 40 1015.4
20260503182750 57 123 1.7 4.3 0.00 0.00 0.00 43 1015.4
20260503182251 57 286 1.7 7.8 0.00 0.00 0.00 43 1015.6
20260503182038 57 273 2.6 7.8 0.00 0.00 0.00 41 1015.4
20260503181250 57 313 1.7 7.8 0.00 0.00 0.00 43 1015.6
20260503180751 57 280 1.7 7.8 0.00 0.00 0.00 41 1015.6
20260503180252 57 272 1.7 7.8 0.00 0.00 0.00 48 1015.7
20260503180037 56 279 1.7 7.8 0.00 0.00 0.00 44 1015.7
20260503175251 56 209 2.6 7.8 0.00 0.00 0.00 42 1015.8
20260503174750 56 234 1.7 6.1 0.00 0.00 0.00 44 1015.8
20260503174536 55 200 2.6 4.3 0.00 0.00 0.00 45 1015.7
20260503173751 55 304 1.7 3.5 0.00 0.00 0.00 44 1015.7
20260503173253 55 233 1.7 9.6 0.00 0.00 0.00 45 1015.8
20260503172753 55 232 3.5 9.6 0.00 0.00 0.00 46 1015.7
20260503172252 55 225 1.7 7.0 0.00 0.00 0.00 44 1015.7
20260503171752 54 319 2.6 7.8 0.00 0.00 0.00 46 1015.7
20260503171253 54 261 3.5 7.8 0.00 0.00 0.00 45 1015.8
20260503170754 55 63 2.6 4.3 0.00 0.00 0.00 43 1015.9
20260503170303 54 72 0.9 7.0 0.00 0.00 0.00 47 1016.0
20260503150753 51 253 1.7 7.0 0.00 0.00 0.00 49 1016.9
20260503150254 51 43 0.9 4.3 0.00 0.00 0.00 50 1016.7
20260503140251 47 287 2.6 4.3 0.00 0.00 0.00 56 1017.2
20260503131239 45 273 1.7 7.0 0.00 0.00 0.00 61 1017.2
20260503131023 44 46 1.7 9.6 0.00 0.00 0.00 61 1017.2
20260503130239 44 253 0.9 9.6 0.00 0.00 0.00 64 1017.1